Hourly Data Report for September 04, 2013

All times are specified in Local Standard Time (LST). Add 1 hour to adjust for Daylight Saving Time where and when it is observed.

PETAWAWA AWOS 2
ONTARIO

45°57'00.000" N
77°19'00.000" W
130.10 m
6106396
71625
YWA

Download Data

Hourly Data (September 2013)
Hourly Data Report for September 4, 2013
Temp Definition
°C
Dew Point Temp Definition
°C
Rel Hum Definition
%
Wind Dir Definition
10's deg

Wind Spd Definition
km/h
Visibility Definition
km
Stn Press Definition
kPa
Hmdx Definition


Wind Chill Definition


Weather Definition


TIME
00:00 9.5 9.5 100   0 9.7 99.38      
01:00 9.4 9.4 100   0 1.4 99.40      
02:00 8.7 8.7 100   0 15.0 99.35      
03:00 9.0 9.0 100 28 4 15.0 99.35      
04:00 10.4 10.4 100   0 15.0 99.33      
05:00 10.8 10.8 100   0 15.0 99.35      
06:00 10.5 10.5 100 25 4 15.0 99.41      
07:00 13.0 12.5 97 30 6 15.0 99.48      
08:00 14.0 13.1 94 27 6 15.0 99.58     Rain
09:00 15.4 14.4 94 28 9 15.0 99.67     Rain
10:00 16.0 14.3 90 30 11 15.0 99.72      
11:00 14.8 12.4 86 31 17 15.0 99.82      
12:00 16.2 11.4 73 29 15 15.0 99.82      
13:00 17.3 10.9 66 32 13 15.0 99.83      
14:00 18.1 9.0 55 32 20 15.0 99.82      
15:00 18.1 7.2 49 32 17 15.0 99.82      
16:00 17.6 5.7 46 32 15 15.0 99.79      
17:00 17.2 6.6 50 31 13 15.0 99.84      
18:00 15.6 6.3 54 31 7 15.0 99.81      
19:00 13.1 7.3 68 31 4 15.0 99.88      
20:00 10.7 8.3 85 27 7 15.0 99.96      
21:00 11.0 7.8 81 28 7 15.0 99.95      
22:00 9.4 6.7 83 27 7 15.0 99.96      
23:00 8.6 7.3 92 24 4 15.0 99.95      

Notes on Data Quality.

Legend

  • E = Estimated
  • M = Missing
  • NA = Not Available
  • ‡ = Partner data that is not subject to review by the National Climate Archives
Date modified: